Theta_e
339 336 326 329 328 327 325 321 303 309 306 298 295 297 295 303 304 301 301 303 301 305 305 305 304 305 302 302 302 304 306 303 307 296 296 314 330 335 337 337 335 336 338 337 341 345 344 344 349 352 353 353 355 355 356 355 355 355 354 354 354 352 352 351 350 350 349 348 348 347 347 347 347 347 347 347 347 347 346 346 348 347 346 347 347 348 349 348 348 348 349 348 351 354 355 354 354
332 328 325 327 327 327 318 319 305 302 302 294 294 298 297 302 303 299 299 301 304 304 305 304 304 305 306 305 304 305 305 309 307 308 314 322 327 328 330 332 333 330 337 337 335 348 346 345 347 351 352 353 354 355 355 356 355 354 354 354 354 353 351 351 351 350 348 348 348 347 347 346 346 346 347 347 347 347 346 346 349 347 346 347 347 348 349 349 348 348 349 349 351 354 354 354 353
324 327 326 328 326 323 318 316 300 298 298 291 294 297 302 298 298 300 302 302 304 305 305 305 305 306 305 305 302 301 298 308 308 310 312 323 316 323 330 332 331 332 332 339 337 335 345 345 343 349 351 352 353 355 355 355 355 354 354 354 354 353 351 351 351 351 349 349 348 348 347 346 346 346 346 346 346 347 346 348 349 349 347 347 348 348 348 349 349 349 350 349 350 354 354 353 353
328 329 326 326 317 322 311 310 306 298 296 294 293 299 299 299 299 301 303 304 304 304 305 304 303 309 305 300 301 305 303 305 308 310 307 322 323 325 328 330 328 320 323 341 340 336 340 344 343 348 350 352 352 354 355 355 355 354 354 354 354 353 353 351 351 350 350 349 348 347 347 347 347 346 346 345 346 346 346 347 350 350 347 348 349 349 349 349 349 351 351 351 350 354 354 354 352
329 331 328 322 320 313 310 306 299 298 291 293 293 298 299 300 300 301 304 304 303 303 303 305 302 307 306 303 306 301 301 308 308 315 315 328 328 326 327 328 324 317 319 330 336 337 339 342 343 347 349 350 351 353 354 353 353 353 353 353 353 353 353 351 350 350 350 349 348 346 346 346 346 346 345 346 345 346 347 348 349 349 349 348 349 350 350 350 350 351 351 351 351 355 353 353 353
327 326 332 325 314 315 307 299 301 293 296 299 296 297 300 301 301 301 303 304 305 303 306 303 301 301 302 307 308 302 310 303 308 314 317 317 319 323 322 323 319 317 318 321 332 335 346 340 343 347 349 349 350 352 353 353 353 353 353 352 353 351 352 351 350 349 348 347 346 346 346 345 345 346 345 346 348 348 349 349 349 349 350 351 349 350 351 351 351 351 352 352 352 356 352 352 353
321 319 321 320 317 314 304 299 295 296 297 301 298 299 300 301 301 301 302 303 306 304 305 303 304 302 300 304 306 309 313 313 312 315 317 317 315 321 321 317 316 320 325 325 328 340 340 340 346 348 348 348 348 350 351 352 353 353 352 352 351 350 351 351 349 349 348 348 347 348 346 346 345 346 347 348 348 348 349 349 349 350 349 350 350 350 351 352 351 351 351 351 351 355 353 353 352
324 312 317 308 306 304 299 298 296 297 298 301 301 300 301 302 302 301 301 301 300 299 303 303 303 301 301 305 301 310 314 316 314 315 315 314 318 320 319 316 314 323 328 327 330 336 337 339 343 344 345 346 346 348 348 350 350 352 352 351 351 351 349 350 348 349 347 348 347 347 347 346 346 348 349 348 347 348 349 349 349 349 350 349 350 350 349 350 352 350 350 350 351 353 351 352 352
320 315 318 308 301 306 299 297 297 301 300 301 301 305 308 302 302 301 300 303 302 302 302 302 302 298 299 300 303 310 310 314 315 317 317 317 317 315 317 319 319 326 328 329 330 334 336 334 339 342 342 343 345 347 348 349 350 351 351 351 351 351 351 351 350 350 350 348 347 347 347 347 348 348 349 348 349 349 349 349 348 348 349 348 348 347 348 349 350 350 350 350 351 351 351 352 352
314 313 304 305 304 297 299 298 296 300 298 301 300 301 302 302 302 303 302 301 302 302 302 303 301 299 300 299 303 306 306 311 312 313 316 317 318 317 316 319 321 324 324 330 330 333 334 336 336 338 340 341 343 345 347 348 348 349 351 351 351 351 350 350 350 350 349 349 348 347 348 348 348 343 343 345 346 347 347 347 347 347 347 347 347 347 347 348 349 350 351 350 352 351 350 350 350
307 316 314 303 300 297 297 295 297 299 299 301 301 303 302 302 302 302 301 301 303 302 301 302 300 299 300 303 305 312 309 310 309 309 313 316 317 318 317 317 321 323 324 327 330 330 331 332 331 335 336 337 340 342 344 345 347 348 349 350 350 350 350 350 349 348 349 348 348 346 347 346 345 342 343 344 345 346 345 346 345 345 346 346 345 345 345 347 348 348 348 350 351 350 350 348 348
306 305 309 300 296 296 295 295 298 298 300 300 299 302 302 303 304 300 300 299 300 301 300 302 299 301 299 301 304 304 307 308 308 311 312 313 313 319 320 316 322 323 326 326 328 328 330 330 332 332 332 335 336 338 340 342 343 344 346 348 348 348 348 348 347 346 346 347 347 347 346 345 345 343 343 344 344 346 345 345 343 343 345 345 345 345 346 347 348 348 348 349 346 348 348 348 347
306 309 301 298 298 296 297 297 298 300 299 298 299 302 303 302 300 300 300 300 300 299 299 302 302 303 300 300 304 305 305 307 309 311 311 312 312 313 318 318 321 321 323 324 324 324 326 326 327 331 331 328 330 332 334 336 338 340 342 345 346 346 346 347 347 346 345 345 345 346 345 343 343 344 344 346 346 345 344 344 345 344 344 345 346 346 346 346 347 349 342 343 344 346 348 348 348
309 310 304 298 301 298 296 296 298 294 296 298 300 303 304 302 301 302 299 298 299 299 302 303 303 302 302 300 300 301 303 306 308 310 311 311 312 311 311 310 312 312 314 314 314 315 315 321 325 327 329 331 331 330 328 330 333 337 339 340 341 342 343 345 345 345 345 343 342 342 341 339 340 341 343 345 346 343 342 343 343 344 344 344 345 344 345 346 347 344 339 341 340 343 347 348 347
308 310 304 302 297 300 299 295 296 295 294 299 301 302 302 304 302 302 300 300 299 304 304 304 306 301 295 298 297 300 303 306 308 309 309 310 311 309 310 309 310 311 311 312 312 312 312 313 315 320 325 326 328 329 330 332 330 331 334 336 338 340 341 340 340 341 341 340 339 338 337 334 333 334 336 338 342 339 337 337 339 343 345 345 345 344 344 345 346 344 342 341 338 343 342 345 346
312 306 305 301 297 296 297 296 298 297 295 300 301 303 300 302 303 301 303 302 305 308 306 300 306 300 301 300 301 302 304 306 308 307 307 306 307 308 306 306 306 308 310 309 310 310 310 311 311 313 316 320 323 326 328 329 329 328 330 333 335 337 338 338 338 338 334 332 332 332 331 332 330 332 328 333 332 336 334 332 333 341 345 344 343 341 340 341 344 344 342 340 338 343 343 344 342
313 311 299 299 295 295 296 296 296 293 297 301 302 301 298 298 302 302 305 303 300 302 303 304 302 305 301 301 303 304 304 306 307 305 304 303 302 302 303 303 304 305 308 307 308 308 309 309 310 310 312 314 317 321 326 328 330 328 329 327 328 330 333 334 334 331 327 326 326 327 325 332 337 336 335 335 327 332 326 325 330 338 343 341 339 337 338 340 340 340 339 339 341 342 338 337 334
311 303 302 296 297 295 298 297 298 299 297 298 300 300 298 297 299 301 302 301 302 302 301 302 303 302 303 303 304 303 303 303 302 300 300 299 301 300 300 301 302 302 303 304 306 306 306 308 309 310 310 311 314 319 324 327 329 329 329 330 332 331 329 328 331 333 328 335 329 330 334 335 335 334 334 328 332 331 330 324 326 333 340 339 336 337 339 341 339 340 339 339 340 339 330 338 333
306 301 298 295 297 297 300 299 299 297 297 299 300 300 299 298 298 300 297 299 300 299 299 300 299 300 301 301 300 300 300 300 299 298 297 298 297 297 297 299 299 300 300 301 303 304 305 306 307 308 310 310 311 314 320 323 324 325 327 328 329 329 330 328 333 332 334 335 335 336 333 335 336 334 333 329 328 324 329 325 326 331 337 336 334 335 336 338 337 337 337 339 338 330 329 332 334
310 301 295 296 301 299 301 302 300 300 300 299 299 299 299 299 299 300 300 297 298 296 295 296 295 295 297 297 298 298 298 298 298 297 296 296 296 296 296 297 297 298 300 300 302 305 304 304 305 307 308 310 310 311 315 318 320 322 323 325 327 328 329 333 335 335 335 335 335 336 335 335 335 334 327 323 322 329 329 323 324 328 331 330 328 330 332 334 337 335 333 334 329 326 329 331 331
307 300 297 299 299 299 300 301 301 300 301 299 299 299 298 298 300 300 298 296 296 296 297 295 294 295 295 296 297 297 296 296 296 296 296 296 296 297 296 296 296 298 300 300 302 302 303 302 304 305 306 308 310 310 311 312 316 319 320 322 324 326 328 329 329 333 334 334 334 334 334 333 334 333 332 332 332 332 332 331 330 333 333 329 325 329 329 328 326 330 331 327 327 329 328 331 332
304 298 301 301 299 298 302 301 301 300 300 299 298 297 297 300 300 299 298 294 291 294 296 296 296 295 295 295 296 296 295 295 295 295 295 295 295 295 296 295 297 298 299 299 301 301 303 302 303 304 304 306 309 309 312 312 314 315 318 321 322 324 327 327 328 329 329 330 330 331 332 332 332 332 331 331 333 333 332 333 333 331 331 331 330 328 327 327 323 325 328 331 331 332 331 331 330
296 300 300 299 300 298 302 301 301 299 300 298 298 299 299 299 297 299 298 296 296 298 297 296 296 296 296 296 295 295 294 294 294 294 295 294 295 295 295 295 295 295 296 298 299 301 303 301 303 302 301 303 306 308 311 311 312 314 316 318 320 321 323 325 326 326 327 328 328 328 329 329 330 330 330 330 331 331 331 331 330 330 331 332 330 328 327 326 325 324 326 328 328 326 329 329 329
300 296 299 299 301 299 301 300 300 299 299 298 299 300 298 297 294 298 297 297 297 297 297 296 296 295 295 294 294 294 294 293 294 295 295 294 295 295 296 294 295 295 296 297 298 300 300 300 302 302 301 302 303 305 307 307 310 313 315 315 319 319 321 324 325 327 328 328 328 328 327 328 329 329 329 329 330 330 329 329 327 328 331 331 329 328 326 324 326 326 326 326 326 326 325 327 327
299 298 300 300 300 300 300 298 298 300 299 300 298 296 297 298 297 298 295 296 296 296 295 295 295 294 294 293 293 293 293 294 293 294 295 294 295 296 297 295 295 295 294 296 297 299 299 300 301 301 301 302 302 303 303 305 307 309 312 315 316 317 319 321 323 325 325 325 326 326 326 328 329 330 328 328 329 328 328 327 328 329 331 330 329 327 325 325 326 326 326 325 326 325 326 325 326
301 300 299 299 300 301 299 299 299 299 300 298 295 295 297 299 299 295 296 295 296 295 295 294 294 293 292 292 292 292 292 292 293 292 293 293 295 293 294 294 294 293 294 295 296 297 298 299 300 300 299 301 302 301 301 302 303 304 307 310 314 315 317 319 321 322 323 324 325 326 327 327 329 330 329 327 329 328 327 326 326 329 330 329 328 327 324 325 325 326 325 325 324 324 325 323 324
302 300 300 298 298 299 300 298 299 298 298 297 295 294 297 298 297 290 296 296 295 294 294 293 292 291 292 291 292 291 291 292 291 292 292 292 292 292 292 292 292 293 294 294 295 295 297 297 299 299 299 300 301 300 300 301 302 302 304 306 310 314 317 318 319 320 321 322 323 324 325 326 328 330 331 329 328 328 327 325 326 329 329 329 328 327 325 324 325 326 326 325 324 324 324 324 323
300 299 297 297 298 298 298 298 298 298 297 296 296 294 297 297 298 292 294 296 295 293 292 292 291 291 290 291 291 292 291 292 290 291 291 290 290 291 291 291 292 293 292 293 294 295 295 296 298 299 299 299 299 299 299 300 300 301 303 305 306 309 313 316 318 320 320 321 322 323 324 326 327 328 328 327 326 327 325 323 324 326 327 329 328 327 325 325 325 327 327 326 324 324 324 324 323
298 297 293 296 297 295 297 296 297 297 296 296 297 294 293 293 292 295 296 296 294 293 292 291 291 290 290 290 290 290 289 290 290 290 291 291 291 292 291 292 292 292 293 293 294 294 294 295 297 298 299 299 299 298 298 299 300 301 302 304 305 307 308 309 313 318 320 321 321 322 323 324 324 326 327 327 325 327 325 324 323 325 327 330 330 327 325 325 325 324 323 323 324 324 322 321 321
298 297 294 295 294 292 297 298 297 296 296 296 296 284 289 292 295 296 296 294 293 291 290 290 290 290 289 289 289 289 290 290 290 290 291 291 291 291 291 292 293 292 293 292 293 293 295 297 298 298 299 298 299 299 299 298 299 300 301 302 303 304 306 308 309 311 315 319 321 322 322 322 322 324 325 325 325 325 324 323 324 324 325 329 329 327 326 325 324 324 322 322 320 323 322 320 320
292 297 296 290 290 289 296 297 297 294 297 297 297 286 287 293 294 295 295 294 292 289 289 289 290 289 288 289 289 289 290 290 291 291 292 292 291 291 291 292 292 293 293 293 293 293 294 295 297 296 297 296 297 298 298 298 299 299 300 300 301 302 305 305 305 307 309 313 319 320 321 321 322 323 323 325 324 324 322 321 324 325 327 329 328 327 325 323 323 322 320 320 319 321 322 318 319
294 291 289 293 289 291 295 298 296 293 296 297 295 287 287 291 293 295 294 293 291 289 288 288 288 288 288 288 288 288 289 290 292 292 291 290 291 290 291 291 292 292 292 293 293 293 293 293 295 294 295 295 296 296 297 297 298 299 299 300 300 302 302 303 303 305 307 308 313 318 320 320 321 321 320 322 323 324 322 323 323 322 321 325 327 326 324 322 322 321 320 321 319 319 320 319 319
294 291 289 289 290 291 293 294 296 295 295 296 293 286 290 289 292 294 293 292 290 288 288 288 288 288 288 287 288 288 288 288 289 290 290 290 290 290 290 290 291 292 292 292 291 292 292 293 294 293 294 294 295 295 296 296 297 298 299 299 299 299 299 300 301 303 303 304 307 311 317 319 320 320 320 321 321 323 323 323 323 323 323 324 325 325 323 322 321 320 319 318 321 319 320 319 319
292 294 288 291 288 288 286 293 295 296 294 290 294 288 289 291 292 292 292 292 290 288 287 287 287 287 287 287 287 286 287 287 288 288 289 290 290 291 290 292 291 291 291 291 291 291 292 292 293 294 294 294 294 294 295 295 296 297 298 299 299 298 298 299 300 301 301 301 303 308 316 319 318 319 320 321 320 320 321 322 323 323 321 322 324 323 321 322 322 321 319 319 319 319 319 319 319
287 287 286 287 288 288 287 287 291 294 293 290 289 289 290 290 291 291 291 291 289 287 287 287 286 287 287 287 287 287 287 287 287 287 291 290 290 289 289 288 289 290 290 290 290 291 291 291 292 292 293 293 293 294 294 295 295 296 296 297 297 298 298 298 299 299 300 300 301 305 311 314 316 318 319 320 320 321 322 321 323 322 321 323 322 323 322 321 320 321 319 318 318 319 319 320 320
288 289 287 286 284 286 287 292 293 293 290 289 288 287 289 289 289 290 290 290 288 287 287 286 286 286 286 287 287 286 286 287 289 291 291 289 289 289 288 288 289 289 290 290 291 290 290 290 291 292 292 293 293 293 293 293 293 293 293 295 295 296 297 298 299 299 300 299 301 304 308 313 316 314 316 318 318 318 319 321 321 322 321 321 321 321 321 320 319 319 318 318 316 315 318 320 320
290 290 289 287 287 289 292 292 292 293 289 288 288 288 289 290 289 289 289 289 287 286 286 286 285 286 287 286 286 286 286 287 290 290 289 288 289 288 288 288 288 289 289 289 289 290 290 290 290 290 291 292 292 292 292 292 291 292 293 293 293 295 296 297 298 299 299 300 301 303 307 308 308 310 312 314 315 314 315 318 320 320 321 319 320 320 321 321 321 320 318 317 316 314 315 318 319
289 289 288 287 289 286 292 291 292 292 288 286 288 289 289 290 289 289 289 288 286 285 285 285 285 286 286 285 286 285 286 289 289 287 288 287 286 288 288 287 288 287 288 289 289 289 290 290 290 290 291 291 291 291 292 292 292 292 292 293 293 294 294 295 296 297 299 301 301 302 303 303 304 307 309 311 312 314 314 315 317 318 319 319 320 320 321 317 320 320 319 316 317 315 313 317 318
290 287 286 286 287 291 292 291 292 292 290 286 288 287 287 290 289 289 287 287 286 286 286 285 285 285 285 286 285 285 284 285 285 285 286 285 287 287 286 287 287 287 288 288 289 289 289 290 290 290 291 291 291 292 292 292 292 293 293 293 293 293 295 297 297 297 298 300 301 301 301 302 303 303 306 308 311 312 312 313 314 318 318 316 318 319 319 319 320 319 318 316 314 315 313 316 317
287 287 285 283 289 286 283 290 291 291 288 286 287 286 287 290 289 288 288 286 286 288 288 288 287 284 284 285 284 284 283 283 283 284 284 284 285 285 286 286 287 287 287 288 288 289 290 290 290 290 290 291 291 291 292 292 292 293 294 294 294 294 293 295 296 297 297 299 300 300 300 302 302 303 305 307 310 311 311 311 312 315 316 316 317 317 316 318 320 319 318 316 315 312 312 313 316
291 291 287 287 288 287 286 286 289 290 291 289 286 284 283 286 284 285 286 287 287 287 287 286 286 287 287 287 286 285 284 283 283 283 283 284 284 284 285 286 286 287 287 287 288 289 290 289 290 290 290 291 291 291 291 292 292 292 293 293 293 293 293 293 293 293 295 296 297 298 299 301 302 303 304 305 307 310 310 311 311 312 314 316 316 316 315 317 319 319 319 316 315 313 311 312 314
286 290 289 288 288 286 287 288 287 283 282 285 286 276 278 285 285 284 284 285 284 285 284 284 284 284 285 283 284 284 286 285 284 283 283 283 284 284 285 285 286 286 287 288 288 289 289 290 290 290 290 290 290 291 291 291 291 290 290 290 289 289 289 290 290 291 292 294 295 298 299 300 302 302 303 304 306 308 310 310 310 311 312 313 314 316 316 317 318 319 319 317 315 315 313 312 312
284 285 289 288 286 287 286 286 284 277 276 284 286 276 275 284 284 284 284 284 283 284 283 283 284 284 283 283 284 283 283 283 284 284 283 283 284 284 285 285 286 286 287 288 289 289 289 290 290 290 290 290 291 290 290 291 290 290 290 290 290 289 289 291 292 292 293 294 297 297 299 300 300 301 302 303 305 305 308 309 308 309 310 311 309 314 315 316 316 318 318 318 317 315 314 312 312
281 288 289 287 287 285 285 285 283 280 286 287 286 283 276 276 282 285 285 284 282 282 282 282 283 283 282 283 283 283 283 283 283 283 282 283 284 284 284 285 286 286 287 288 288 289 289 289 289 289 290 290 290 290 290 290 289 290 289 289 290 289 290 290 291 292 293 294 295 296 298 299 300 301 302 302 302 302 303 307 308 307 308 310 309 312 313 316 316 316 316 318 317 315 315 313 312
286 286 288 285 286 285 285 284 281 282 280 277 280 284 276 275 282 285 285 281 280 280 281 282 282 282 282 282 283 282 283 283 283 282 283 283 283 284 285 285 286 287 287 288 288 288 289 289 289 289 289 289 289 289 289 290 289 287 286 286 286 288 290 291 292 292 292 293 293 295 296 297 299 300 301 301 301 302 301 303 306 306 306 307 305 310 312 315 316 316 316 316 316 315 315 315 313
289 287 289 288 287 286 285 281 281 281 277 274 278 282 275 276 281 281 283 281 279 280 281 281 281 282 282 282 283 283 282 283 283 282 283 284 284 285 286 286 286 286 288 289 288 288 288 288 288 288 288 288 289 289 288 287 286 286 284 284 284 285 287 289 290 290 291 291 291 293 294 296 297 297 299 300 300 301 301 302 304 305 305 306 304 309 311 313 315 316 316 316 316 315 315 314 314
290 289 286 286 286 285 284 282 281 277 272 275 280 282 279 272 279 280 279 282 282 281 280 281 282 282 282 282 282 282 282 282 282 283 283 284 285 285 285 285 286 287 287 287 287 287 287 287 286 286 287 288 288 287 286 285 285 284 283 283 282 282 283 284 286 289 290 290 290 292 294 295 296 296 297 298 299 300 299 299 300 301 303 302 303 307 309 312 314 315 315 315 315 314 314 314 313
289 284 282 281 280 281 279 279 279 271 271 277 276 278 279 270 275 280 280 281 282 281 280 279 280 280 281 282 282 282 281 282 282 283 283 284 284 285 285 285 285 286 286 286 286 286 287 286 285 285 285 285 285 285 284 284 284 283 283 282 282 282 282 282 283 286 289 289 289 290 292 293 295 295 296 296 297 297 298 298 298 299 299 302 303 305 309 312 314 315 315 314 314 314 314 312 313
287 283 281 276 274 276 272 275 268 272 270 275 275 277 273 274 280 280 280 281 281 281 281 280 279 279 280 281 281 281 282 281 282 282 283 283 283 284 284 285 285 285 285 285 285 285 285 285 284 284 283 283 283 283 282 282 282 282 282 282 282 282 281 281 282 284 288 289 290 290 291 292 294 294 294 294 294 296 297 296 296 297 298 299 301 302 303 305 311 315 314 314 314 314 313 312 312
284 281 279 276 272 271 269 271 274 272 277 276 276 278 273 277 279 283 280 281 282 282 281 281 280 279 280 281 281 281 281 281 281 282 282 282 283 283 284 284 284 284 284 284 284 284 284 284 283 282 282 282 282 281 281 281 281 281 282 281 280 280 280 281 282 283 286 288 290 291 292 293 293 293 293 293 294 296 296 297 297 297 298 299 300 302 303 303 305 311 314 313 313 314 313 312 312
280 284 279 278 276 272 270 272 268 271 272 276 279 274 269 270 274 280 281 282 282 282 281 281 281 280 281 281 280 280 280 280 281 281 282 282 283 283 284 284 284 284 284 284 283 283 283 282 282 281 280 280 280 280 280 280 280 280 279 279 279 280 281 282 283 284 285 286 287 288 291 293 293 294 294 294 294 295 296 296 297 297 297 298 299 300 302 304 305 307 311 312 312 313 313 311 311
283 285 284 278 276 281 275 276 272 271 272 271 271 270 274 277 281 281 282 282 281 282 281 280 280 281 280 280 280 280 280 280 281 281 282 282 283 283 284 284 284 283 283 283 282 282 282 281 281 280 280 279 279 279 278 278 278 278 278 278 278 280 281 280 280 281 282 284 286 287 290 293 295 294 294 294 294 295 295 295 296 296 297 297 298 299 300 302 303 304 308 311 311 311 313 311 311
282 282 279 280 282 281 276 276 278 275 273 271 274 274 278 281 280 280 281 280 280 280 279 279 279 279 279 280 279 279 280 279 280 281 281 282 282 283 283 283 283 283 283 282 282 282 281 280 280 279 279 279 278 278 277 277 277 277 277 277 277 277 278 278 278 279 280 281 281 283 287 292 295 295 293 293 293 294 295 295 295 295 296 296 296 297 299 301 303 304 306 309 310 312 310 311 311
282 277 280 284 285 282 278 271 272 271 267 269 272 271 274 275 270 279 279 278 279 278 278 278 279 279 278 279 279 279 279 279 280 280 281 282 282 282 283 283 283 283 282 282 281 281 281 280 279 279 279 278 278 277 277 277 276 276 277 276 276 277 277 277 278 278 279 279 280 282 284 285 290 293 293 293 293 293 294 293 294 294 294 295 295 296 298 300 301 303 304 306 310 311 310 310 309
282 281 287 278 273 273 276 271 267 268 268 270 274 273 274 274 275 276 276 277 277 277 278 277 277 278 278 278 278 278 279 279 280 280 281 281 282 282 282 282 282 282 282 281 281 281 280 279 279 279 278 278 277 277 277 277 276 276 276 276 275 275 276 277 277 278 278 279 280 281 282 284 286 291 291 291 291 292 292 292 293 293 293 293 294 294 295 297 300 301 303 304 307 310 310 309 309
285 285 280 285 278 278 273 275 273 274 269 270 271 274 270 277 276 277 278 278 277 277 277 277 278 278 278 278 278 278 279 279 279 280 281 281 282 281 281 281 281 281 281 281 280 280 279 279 279 278 278 277 276 276 275 274 275 275 274 274 275 275 276 277 277 276 277 278 280 282 283 283 285 286 288 291 291 291 291 291 292 292 292 292 292 293 294 296 298 300 302 303 305 309 310 309 308
277 277 276 279 279 281 277 276 273 272 269 270 269 267 272 277 279 278 277 278 278 278 277 278 278 278 278 278 278 278 279 280 280 281 281 281 281 281 281 281 281 281 281 280 279 279 278 278 277 277 276 276 275 275 275 274 274 273 274 274 273 273 274 276 276 276 276 277 278 281 283 283 284 284 285 286 290 291 291 291 291 291 291 291 291 291 293 294 296 298 300 301 303 307 309 309 307
278 277 277 278 277 273 271 270 276 271 270 268 267 267 274 279 282 281 279 279 279 279 278 278 278 278 278 278 278 278 279 280 280 281 280 281 281 281 281 281 281 280 280 279 279 278 278 277 277 276 276 275 275 274 274 274 274 274 273 273 273 273 273 274 274 275 276 277 278 279 280 281 281 283 285 285 287 291 290 290 290 291 291 291 291 292 292 293 295 296 298 300 302 304 308 308 308
Wind_Speed
8 6 6 6 6 6 4 2 1 2 1 1 4 4 2 1 1 4 5 4 3 2 3 3 4 4 4 1 3 4 4 3 1 2 1 1 2 1 1 2 3 1 0 1 4 5 5 6 5 3 2 2 3 5 5 6 6 7 8 8 8 10 12 12 13 12 12 12 12 12 11 11 11 11 12 12 12 13 12 12 10 10 12 13 13 13 13 12 12 12 12 11 9 7 10 9 10
6 4 3 3 3 2 2 4 0 1 2 5 5 3 0 1 1 5 5 5 3 2 3 3 2 3 2 5 3 6 2 1 6 3 1 2 6 7 7 8 5 6 1 0 1 7 5 6 7 4 3 2 4 4 5 6 7 7 8 8 8 9 12 13 12 12 12 11 12 12 12 12 12 12 12 13 13 13 13 12 10 11 13 14 14 14 13 13 13 12 12 12 10 9 11 11 12
6 6 4 3 3 2 4 0 2 3 1 6 3 3 1 4 7 4 6 5 4 3 2 2 3 0 4 3 1 3 1 7 7 4 1 9 9 7 8 6 7 6 2 2 3 3 5 7 10 7 5 4 4 5 5 5 7 7 7 8 8 10 11 11 11 11 12 13 11 14 13 13 12 13 12 13 13 13 13 12 10 10 13 14 14 14 14 13 13 13 13 12 12 11 11 12 14
5 5 5 3 3 2 2 1 2 3 2 3 6 3 4 4 6 5 5 5 5 1 1 3 4 1 1 4 4 6 3 3 8 5 2 7 4 5 7 8 10 6 5 3 0 3 2 7 11 8 7 4 4 4 4 5 6 6 8 8 8 9 10 11 11 11 11 12 13 13 12 12 13 13 12 13 13 14 13 12 11 11 13 14 14 14 14 14 14 14 13 13 13 11 12 13 15
3 4 2 3 1 1 1 3 3 2 6 4 3 4 5 5 6 4 2 6 4 3 4 3 1 1 1 1 0 2 3 5 7 11 4 3 6 7 7 8 7 6 7 1 3 0 2 8 8 8 7 6 4 5 4 5 5 6 7 7 8 9 10 11 12 12 11 12 13 13 12 12 11 12 13 13 14 13 13 12 11 11 12 14 14 15 15 15 14 14 14 13 14 10 13 13 14
5 6 2 1 2 2 1 2 2 7 3 2 4 4 6 6 6 4 2 6 5 5 1 4 3 4 2 1 1 2 2 2 4 8 6 6 8 8 8 6 6 8 7 8 3 5 7 6 5 6 6 5 3 3 4 5 5 6 6 7 7 9 9 10 11 12 13 12 13 13 12 12 12 12 12 11 11 12 11 12 11 11 12 13 14 15 15 15 14 14 13 13 14 11 13 14 15
3 2 2 1 3 1 2 2 6 4 2 3 2 5 6 6 5 5 4 4 0 5 3 3 3 5 2 1 2 4 11 9 6 3 6 5 7 7 7 7 6 7 10 10 6 8 7 8 5 3 2 2 0 2 2 3 5 7 7 7 8 9 9 9 11 11 10 8 9 11 12 13 12 13 11 10 11 11 11 8 8 8 9 11 12 14 15 16 15 14 13 13 15 12 13 13 15
2 1 1 0 3 2 4 1 5 4 1 4 3 6 4 5 3 4 4 5 3 2 4 5 4 1 3 7 4 4 10 12 8 8 7 7 7 8 7 9 8 7 8 8 7 4 6 8 6 5 3 2 2 3 4 5 6 7 7 8 9 9 10 11 12 12 13 10 10 13 14 13 14 11 10 10 10 9 8 9 9 9 9 10 11 13 14 15 16 15 14 13 12 12 13 13 16
2 2 1 1 2 2 3 4 3 1 4 1 5 5 3 5 4 2 4 2 3 2 4 5 3 2 4 6 8 5 9 8 7 7 9 8 8 10 7 9 8 8 8 8 8 7 5 5 5 3 1 1 3 4 5 6 7 7 7 7 7 8 8 9 11 11 11 12 13 14 15 12 10 10 8 7 7 8 9 10 10 11 9 10 13 14 15 15 16 16 15 14 11 13 14 14 15
2 3 2 0 2 5 4 3 5 1 4 4 5 6 5 3 3 2 1 3 3 2 7 6 3 1 5 3 8 9 8 8 8 12 10 8 6 8 8 7 8 7 7 7 6 6 5 2 4 1 1 3 5 5 6 7 8 8 8 7 8 8 8 9 10 11 11 10 11 12 11 10 8 1 4 7 10 8 10 12 11 14 12 12 14 16 15 15 16 16 14 14 12 16 14 15 15
2 2 0 1 1 3 3 3 4 3 5 4 6 6 4 2 2 3 6 4 3 2 6 9 3 5 5 8 4 6 8 12 18 15 11 8 5 7 8 6 7 6 7 8 6 5 5 5 1 1 2 4 5 8 8 7 8 9 8 8 8 8 8 8 8 9 9 10 10 11 11 9 5 5 7 10 13 12 11 13 13 12 11 12 14 16 15 14 15 16 14 13 13 13 15 16 17
2 3 1 2 5 2 2 2 2 4 4 5 4 5 1 2 1 5 5 4 4 10 8 7 1 2 4 2 3 7 14 17 12 9 10 10 7 5 5 6 7 7 6 7 6 6 5 5 5 2 4 4 4 5 7 9 10 10 10 10 9 9 9 9 10 10 10 10 10 11 11 13 11 8 10 12 13 11 11 12 8 10 12 12 9 10 12 14 14 12 13 12 12 9 13 16 18
2 3 4 3 3 3 1 1 2 1 4 4 4 2 0 3 6 4 3 4 7 5 5 4 5 1 1 3 4 8 17 13 11 8 8 9 9 11 9 9 10 10 11 10 8 10 9 7 7 6 7 4 5 7 7 7 8 10 11 11 10 10 10 10 10 12 13 13 13 12 12 12 13 12 12 13 11 9 10 11 9 10 11 12 9 9 12 13 12 11 5 10 11 8 12 16 19
0 2 1 3 4 1 2 2 3 4 3 3 3 2 2 2 4 3 4 5 6 3 2 4 3 3 2 4 9 11 10 12 11 10 9 9 8 9 10 9 10 12 11 13 13 13 13 12 9 7 7 6 6 5 8 10 9 10 11 11 11 10 10 10 11 11 11 14 14 13 12 14 13 10 11 11 12 11 12 13 11 11 11 10 9 9 11 11 11 7 10 14 10 11 16 16 18
1 3 1 3 5 0 1 1 1 3 3 3 0 3 3 7 4 3 4 3 4 1 4 3 4 3 4 9 7 9 10 10 9 10 8 8 8 8 8 9 8 9 10 12 12 12 13 12 13 11 7 7 7 7 8 7 10 12 12 13 12 12 12 12 12 12 12 11 13 14 14 14 12 12 11 12 12 12 13 13 12 12 12 11 5 6 9 11 12 11 15 15 12 15 14 15 19
1 2 1 1 3 1 1 2 3 1 2 2 4 3 5 7 3 3 1 1 1 1 1 2 8 6 7 11 5 7 9 9 9 11 10 9 8 7 8 8 8 9 8 9 9 11 10 12 12 11 12 11 10 9 8 7 11 11 11 13 14 14 13 13 13 12 12 12 12 14 14 12 10 9 13 11 12 11 11 12 12 11 12 7 4 2 6 10 14 10 17 15 15 17 19 17 16
1 1 1 1 5 3 3 2 4 2 2 3 0 6 4 3 5 2 0 1 2 4 5 10 13 12 12 8 7 8 10 9 11 11 10 10 8 8 8 8 8 8 7 8 8 11 11 11 13 10 10 11 11 10 7 8 7 11 11 11 14 14 14 14 14 13 12 12 12 12 11 9 6 5 7 7 10 8 10 10 11 12 11 6 4 5 5 6 7 13 12 13 16 19 17 17 16
1 1 1 5 1 4 2 3 3 3 3 6 6 4 4 3 4 2 4 5 0 7 9 8 15 13 11 7 8 8 9 11 10 12 12 10 8 8 9 8 9 10 8 8 8 10 10 10 11 10 9 12 10 9 7 7 7 9 8 9 6 9 12 13 11 10 10 10 13 10 7 5 6 7 7 7 6 7 9 12 12 12 10 7 8 7 5 5 13 13 14 13 14 13 14 10 11
1 2 2 0 3 0 3 3 4 5 4 5 4 5 5 3 3 3 3 7 5 7 8 8 10 11 11 11 10 10 10 11 11 12 13 13 11 11 9 8 9 9 11 9 9 10 11 9 11 13 10 12 11 9 8 7 7 7 8 8 8 8 8 10 9 10 9 11 10 7 6 7 6 6 6 7 7 10 11 13 14 14 12 11 9 7 5 7 14 12 14 8 8 4 4 5 7
0 2 2 1 1 1 3 3 4 4 5 5 5 4 3 5 3 3 1 7 7 9 6 6 8 9 10 9 9 9 10 10 11 11 13 13 12 11 10 10 10 8 9 9 9 8 12 11 11 11 11 12 11 10 10 8 6 7 8 8 8 9 10 7 8 9 9 10 11 9 7 7 7 7 7 11 12 8 10 14 14 13 13 12 11 6 7 7 14 15 13 9 9 4 6 6 6
1 0 1 1 2 2 1 3 3 4 6 4 3 4 2 4 1 1 2 6 7 8 8 8 8 8 8 8 8 8 10 10 11 10 11 12 11 10 10 10 10 9 8 7 8 10 11 13 11 11 12 11 11 10 10 10 9 8 6 7 7 8 9 10 9 7 8 9 10 9 8 7 7 8 7 8 7 8 7 7 4 4 4 4 7 4 5 5 5 4 8 7 6 7 4 4 8
1 2 3 2 2 2 1 3 5 2 3 3 3 2 3 4 2 7 7 7 4 4 7 8 7 7 8 8 8 8 10 10 11 11 10 11 11 11 10 9 9 8 8 9 9 8 8 11 10 11 11 10 10 10 11 9 10 8 9 8 8 7 8 10 10 10 9 7 7 8 8 8 9 7 8 8 8 7 6 7 9 8 6 6 5 4 6 7 4 3 1 10 8 7 9 8 8
1 3 4 4 1 3 1 2 2 4 1 3 1 3 1 1 6 6 8 9 7 9 7 7 7 7 7 7 7 9 10 10 11 10 10 11 11 11 10 9 9 8 7 8 9 8 9 12 10 11 11 10 11 11 10 8 9 8 7 9 10 9 8 8 9 10 11 12 9 7 7 8 8 8 7 7 7 6 6 7 7 7 7 6 6 7 6 6 6 4 2 3 6 3 8 9 9
2 1 3 3 1 4 3 4 3 1 2 2 1 1 2 3 5 4 9 8 10 8 8 7 7 7 7 8 8 9 9 10 9 9 8 8 9 9 8 9 9 7 7 8 8 8 9 12 11 11 11 11 11 12 11 10 9 8 8 7 8 9 10 9 9 9 10 11 13 10 7 7 8 9 8 8 9 10 9 8 7 6 7 7 6 6 6 6 7 5 5 5 5 5 3 6 8
3 2 2 3 1 2 3 4 2 1 2 0 5 5 5 3 6 7 9 10 8 8 5 6 6 7 7 8 8 8 9 9 10 8 7 6 7 7 6 8 9 8 9 9 8 7 8 8 9 9 11 10 10 11 10 10 9 10 10 8 8 8 9 9 10 9 10 11 11 13 10 10 9 8 9 9 9 9 8 7 8 8 9 8 8 8 7 7 7 6 6 6 5 5 6 4 7
4 1 2 1 2 3 4 3 3 1 1 3 4 3 7 10 13 9 9 8 7 7 6 6 6 6 7 8 8 8 8 8 7 8 7 5 6 9 8 9 9 9 9 8 8 7 7 10 8 8 11 8 9 9 10 10 10 11 10 10 10 7 7 9 10 9 9 10 11 10 12 12 12 10 9 8 9 10 9 8 7 8 10 9 9 9 8 8 7 6 5 6 7 6 5 4 5
0 3 2 3 4 2 1 4 3 3 1 2 3 4 2 8 7 3 6 8 8 6 6 5 6 7 8 7 7 6 7 7 7 5 6 6 7 9 8 7 9 8 9 8 8 9 8 10 8 8 9 8 8 8 9 9 11 11 11 11 10 10 9 8 9 10 9 9 10 12 13 12 11 12 10 9 8 11 11 10 9 8 10 10 9 9 8 8 7 8 8 8 8 8 9 9 6
3 3 4 5 6 4 3 4 1 1 1 3 4 4 2 6 1 7 10 10 8 8 6 5 5 6 7 7 6 4 5 4 4 5 9 10 10 9 9 9 10 9 10 10 9 9 11 12 13 13 13 13 13 14 12 12 12 12 12 11 11 11 11 9 9 9 9 10 10 11 12 11 9 9 11 10 9 9 10 11 10 9 10 10 10 10 9 8 8 8 8 7 6 8 7 8 9
2 3 3 4 6 4 4 4 3 3 1 3 4 4 3 6 4 14 12 9 9 8 6 4 5 6 5 5 4 4 4 4 4 6 8 6 6 8 9 7 9 8 7 8 10 9 11 10 10 11 10 10 11 12 12 12 12 12 12 11 11 12 12 12 12 10 10 10 11 12 11 12 10 10 10 13 9 10 12 13 13 12 11 11 10 11 11 7 9 7 6 5 6 8 7 6 4
4 2 2 3 4 5 8 5 4 5 1 3 4 3 1 9 11 13 10 10 9 7 5 4 5 5 5 4 4 4 4 5 6 7 7 5 6 6 8 8 8 8 8 7 9 10 10 8 7 9 9 12 11 11 10 10 11 11 11 11 11 12 11 11 12 13 13 11 11 13 13 11 11 12 11 9 9 12 12 12 13 12 12 13 12 11 11 9 9 8 8 7 8 9 10 8 7
1 2 3 4 4 4 8 4 6 4 3 3 0 1 7 4 13 11 8 9 8 7 5 5 4 4 4 4 4 4 4 5 6 7 8 7 7 5 7 7 8 8 9 9 10 9 10 9 8 8 10 12 12 11 12 11 11 11 11 10 11 11 11 11 12 12 13 13 11 10 13 13 11 12 12 10 11 14 9 9 11 11 13 15 13 12 11 10 10 11 9 7 6 8 9 8 8
3 2 3 2 3 1 8 4 7 5 2 6 1 3 2 9 9 8 8 8 7 8 5 5 4 4 5 3 3 3 4 5 6 5 7 7 6 5 6 7 7 7 9 9 9 8 11 11 9 9 10 13 13 13 13 14 14 12 11 10 11 10 10 11 12 12 12 13 13 12 12 13 12 12 13 13 12 12 10 12 14 10 5 7 13 13 12 12 10 10 10 10 9 8 9 9 8
3 3 2 3 3 2 1 3 3 2 1 2 4 3 5 3 4 8 7 8 7 9 7 6 4 6 4 3 2 2 4 5 6 5 6 6 5 6 8 8 9 8 8 9 10 11 12 11 10 10 11 13 13 13 13 14 15 14 13 11 10 10 10 11 11 11 12 12 12 13 13 12 11 13 13 13 15 15 12 12 12 11 12 11 8 12 14 12 12 11 10 9 12 11 11 11 10
1 2 1 2 4 2 3 3 2 4 3 1 0 3 5 5 8 7 7 8 8 9 8 4 5 4 3 3 3 3 4 4 6 5 6 6 6 7 9 7 7 7 7 8 6 8 10 7 7 8 10 12 11 12 13 13 13 15 12 11 10 11 11 10 11 11 12 12 12 12 12 11 11 12 13 12 13 15 12 11 11 14 8 6 10 10 12 12 13 13 13 11 11 11 11 11 12
3 7 7 5 4 5 7 7 3 2 3 1 3 5 8 5 8 8 8 6 8 8 5 5 4 3 3 3 3 4 4 4 3 3 3 5 5 6 6 6 6 7 8 8 9 9 8 8 9 10 11 11 11 12 13 12 13 12 12 12 11 10 10 10 11 11 11 12 12 13 12 12 11 11 12 12 11 13 13 14 15 13 11 11 11 11 13 14 14 14 16 14 12 12 13 13 13
4 4 4 4 6 6 7 6 2 3 1 3 4 6 6 4 9 6 6 6 8 6 5 4 4 3 3 3 3 3 4 1 2 1 3 6 6 8 6 5 5 6 8 10 12 11 9 10 10 11 10 11 11 11 11 12 11 11 12 12 12 11 11 10 11 11 10 11 12 12 13 11 10 11 12 12 11 10 12 12 12 13 10 11 13 14 16 16 17 18 17 17 14 9 9 10 10
3 3 4 7 7 7 7 5 4 1 2 1 4 6 9 10 8 8 8 7 6 6 6 4 4 3 2 4 3 2 1 0 2 3 5 7 5 6 5 5 7 9 9 11 11 9 10 12 13 13 12 12 12 13 12 12 13 12 11 12 13 12 12 13 12 11 11 11 12 12 11 10 11 12 12 12 12 10 10 12 13 11 12 10 11 13 14 21 21 19 18 15 18 14 11 10 10
4 4 5 7 6 8 2 4 4 6 1 3 3 11 14 10 3 11 9 7 7 7 6 5 4 3 4 4 2 1 1 1 3 5 6 6 5 7 9 8 8 12 11 12 11 11 11 12 12 13 13 13 14 13 13 13 12 12 13 13 13 14 14 13 12 11 11 11 13 10 9 10 12 11 11 13 13 11 10 13 14 13 12 11 13 16 20 17 21 19 17 15 15 19 14 15 13
4 5 6 5 7 1 4 2 2 1 5 6 6 10 8 8 4 10 11 7 5 4 5 4 4 4 3 3 1 1 3 3 4 4 5 6 9 10 8 7 8 8 10 10 10 12 12 11 11 12 12 13 12 13 13 14 14 14 13 14 15 15 14 13 12 13 12 12 12 11 8 10 12 12 11 11 11 11 9 12 15 15 12 10 12 13 14 18 19 21 20 19 15 12 12 14 17
6 5 4 5 1 3 3 2 6 8 2 8 6 7 8 6 8 8 5 6 5 5 5 4 4 4 3 1 3 2 3 3 4 5 6 6 8 7 10 12 11 11 11 10 10 11 11 10 11 12 12 12 12 12 13 15 17 18 17 15 16 16 16 14 15 13 11 11 12 11 10 8 10 14 13 12 11 11 8 11 13 14 14 10 11 12 11 18 20 18 19 20 20 16 12 14 16
2 4 6 3 1 0 1 4 5 7 11 4 5 8 6 5 9 6 5 6 7 6 6 6 4 2 4 2 2 3 3 4 4 4 5 6 7 7 9 10 11 12 12 12 12 12 11 12 11 13 14 14 13 14 16 16 17 16 15 15 14 15 14 13 13 13 12 11 10 9 10 9 11 12 13 13 11 11 8 7 10 13 13 12 9 9 10 11 15 20 22 19 21 20 17 15 14
3 1 3 2 1 2 3 5 7 3 5 2 2 7 3 8 11 8 7 6 7 7 8 6 4 4 1 3 3 4 3 3 2 3 5 5 6 10 10 9 10 10 10 10 10 12 13 13 14 15 14 13 14 16 18 16 15 16 16 15 16 15 15 14 13 13 14 13 13 11 9 6 8 10 12 13 12 11 10 7 9 12 13 12 11 9 10 11 15 15 18 20 22 21 20 16 15
0 2 0 1 2 3 4 5 2 4 3 2 4 2 12 4 5 10 8 7 7 5 5 4 4 4 2 4 3 3 2 4 2 3 4 6 10 11 11 11 11 12 12 10 9 11 14 14 14 16 15 13 13 15 19 16 15 15 17 17 16 17 18 16 13 13 14 14 11 11 11 10 6 6 9 11 11 11 12 10 8 9 11 12 10 12 10 11 12 17 18 19 20 18 18 19 21
4 2 2 0 3 4 5 5 5 8 5 5 5 4 10 10 7 7 13 10 8 7 5 5 6 2 4 3 2 2 2 2 3 4 4 5 8 9 10 10 10 12 13 12 12 13 14 14 17 18 16 14 14 15 17 17 16 15 17 17 16 17 17 19 17 15 14 13 13 13 10 9 8 6 7 9 11 10 11 11 8 8 9 12 12 13 14 12 10 11 11 17 17 17 19 19 20
2 1 1 3 3 6 7 6 8 7 6 8 4 5 4 6 2 9 13 9 9 8 8 7 4 4 2 2 2 2 2 2 3 4 6 9 9 10 10 10 10 11 11 12 15 14 14 15 17 18 18 16 16 19 19 16 13 16 18 19 22 21 19 17 15 15 14 13 15 13 11 10 8 6 5 7 9 10 10 10 10 8 8 9 8 13 16 15 14 15 15 13 17 18 18 18 18
0 2 3 4 5 6 7 5 7 6 2 12 4 4 6 10 5 7 5 6 10 9 9 6 3 4 1 3 1 1 2 2 3 4 7 8 8 10 10 9 10 10 11 14 16 14 15 15 18 21 21 16 17 17 15 19 20 18 19 21 24 22 21 21 18 18 15 14 16 16 13 11 8 6 5 5 8 9 9 8 7 7 8 8 7 13 17 18 15 15 18 16 16 19 16 16 18
3 3 4 5 5 7 5 5 5 2 6 8 4 7 9 6 6 9 11 7 8 9 6 5 5 2 2 1 1 1 2 4 4 6 7 7 7 9 9 10 11 12 12 14 14 15 15 14 16 21 20 16 16 18 19 20 18 16 17 20 23 23 24 24 23 19 14 14 15 16 13 10 7 7 5 6 6 8 9 6 6 8 10 8 7 11 16 16 14 14 14 18 17 18 15 17 17
1 0 1 5 6 5 3 3 3 1 7 2 4 3 2 5 2 3 2 4 8 10 8 7 1 2 1 1 1 3 4 4 6 7 8 9 9 9 8 10 10 11 13 15 15 16 15 14 17 19 18 20 21 20 21 23 15 14 16 19 20 19 21 21 23 23 18 16 15 17 15 13 9 7 6 6 5 7 8 6 3 5 7 10 9 9 12 16 15 14 14 13 13 16 15 16 17
1 2 4 2 5 3 2 4 3 4 9 2 4 7 7 8 8 2 7 6 7 7 7 6 3 2 2 4 4 4 4 5 7 7 7 8 9 11 12 12 13 12 13 14 15 15 16 14 15 16 19 21 20 19 22 22 18 18 19 17 14 15 19 23 23 21 19 16 14 15 15 13 9 7 6 6 6 7 7 7 6 7 8 9 8 9 11 15 15 15 14 18 18 17 16 17 16
3 3 2 1 3 2 6 4 3 3 1 4 6 1 7 8 8 8 11 8 8 9 7 5 4 4 4 2 2 3 4 5 5 6 7 8 9 10 11 12 12 12 14 15 14 15 17 16 16 17 19 20 18 18 19 22 22 18 16 16 17 18 20 21 20 19 18 16 16 17 15 13 10 8 7 7 7 6 7 7 5 4 6 8 8 9 10 10 15 15 15 14 16 17 16 19 18
3 2 2 5 3 2 6 1 5 6 6 5 1 7 5 0 3 5 11 10 8 7 7 6 4 4 2 1 2 4 4 5 5 5 6 8 10 11 12 12 12 12 12 13 13 14 15 16 18 20 20 20 22 21 19 19 17 18 17 16 18 18 18 17 16 16 17 17 17 19 19 16 11 7 7 7 5 6 8 7 6 5 5 7 8 8 8 9 12 15 13 16 16 14 16 16 17
2 1 4 1 6 2 9 1 1 3 9 9 3 7 2 2 3 5 10 10 8 6 7 5 3 3 2 4 5 4 4 4 4 6 8 9 9 9 10 11 12 12 14 13 13 14 14 15 19 20 19 20 19 19 21 19 20 17 19 20 21 19 16 18 17 16 19 19 19 19 20 19 14 8 7 6 6 6 7 7 6 5 5 6 7 7 8 8 10 14 15 13 17 14 17 20 17
1 2 3 3 0 1 3 4 1 1 3 14 2 6 5 2 2 6 7 7 8 7 5 5 3 3 5 1 1 2 4 3 4 5 7 9 9 10 10 11 11 12 12 13 15 15 16 16 16 19 21 18 16 16 17 18 18 19 18 17 19 20 20 20 19 19 17 16 15 16 18 22 16 10 7 6 7 6 7 7 6 6 5 6 6 6 7 9 10 11 13 13 14 15 15 19 16
3 3 2 1 2 2 2 3 2 1 7 9 7 8 10 3 6 6 7 6 6 5 4 3 3 1 2 0 1 4 4 4 4 6 8 10 9 10 11 10 10 12 13 12 13 14 12 12 13 17 17 18 19 19 19 18 18 18 17 17 18 20 19 20 19 19 19 18 17 13 15 17 21 14 7 7 6 7 6 6 6 6 5 5 5 5 6 8 9 10 11 13 12 14 14 13 16
2 2 1 3 1 1 1 5 4 3 9 9 5 5 8 9 7 6 6 7 3 4 2 2 3 1 0 2 3 4 3 4 5 6 8 8 9 11 11 11 11 11 10 10 11 11 12 13 13 13 16 16 16 16 18 17 16 15 16 18 21 21 19 17 17 19 20 19 19 16 16 15 16 19 11 8 7 7 7 6 5 6 5 5 4 4 6 7 9 10 10 11 13 13 13 14 14
2 1 1 1 1 3 3 6 3 3 12 5 12 5 7 4 2 13 7 5 5 2 2 2 1 2 2 2 3 4 4 4 6 8 9 10 10 10 10 11 13 13 11 9 10 10 16 15 13 17 17 16 17 17 16 17 16 15 19 18 19 20 22 18 17 18 19 20 20 18 16 15 15 14 17 14 9 8 7 7 6 6 5 5 4 3 4 7 8 9 9 9 13 14 16 16 15
2 3 3 0 2 3 3 1 4 6 5 6 11 15 3 2 1 6 4 7 4 5 1 0 1 1 1 2 4 4 5 6 7 8 9 10 11 10 10 11 12 12 10 9 9 13 14 12 15 15 18 20 19 17 17 16 16 17 17 21 20 19 22 20 19 18 18 18 20 20 15 13 13 14 13 16 15 12 8 7 7 6 6 5 5 3 3 6 8 10 9 9 12 15 15 16 16
8 10 10 11 8 4 5 11 3 4 5 6 5 17 4 2 1 1 7 6 5 2 1 1 2 3 2 3 4 4 5 6 8 10 10 10 10 10 12 14 13 13 13 13 13 12 14 14 13 15 16 15 16 18 19 22 16 14 20 18 19 19 19 19 21 20 19 18 18 18 17 17 16 14 12 13 16 15 12 7 7 7 6 6 5 4 2 3 8 10 10 8 9 15 15 15 15
Wind_Direction
281 244 225 226 234 256 273 217 309 170 240 347 79 51 109 102 7 29 32 22 53 86 20 339 7 345 11 289 281 328 322 296 29 354 33 243 114 119 68 20 5 359 99 288 115 139 149 157 166 153 159 259 206 214 200 195 199 196 205 209 214 208 214 217 218 222 220 221 221 223 224 229 232 235 238 236 236 234 234 233 225 233 247 252 255 259 257 252 248 243 236 229 222 173 150 160 153
274 288 276 270 280 303 237 180 299 293 231 84 54 61 15 168 167 39 40 47 51 28 15 329 321 353 279 266 306 284 242 19 43 29 67 77 119 46 17 12 7 340 312 313 324 147 156 162 170 171 182 211 230 225 220 202 202 205 208 213 208 207 217 217 216 219 224 225 230 236 233 235 239 243 240 242 240 239 241 241 231 229 244 252 257 258 259 258 253 247 240 229 220 171 163 161 155
307 307 283 216 258 217 310 252 278 283 169 87 55 69 196 35 44 36 49 54 55 24 345 269 268 293 321 243 248 37 295 48 41 22 40 34 18 356 1 358 344 314 321 49 349 332 146 159 174 173 186 205 237 228 234 229 211 217 216 221 216 209 216 219 218 221 224 222 223 237 242 245 245 244 243 246 248 245 244 241 234 233 241 253 258 260 260 259 257 251 246 236 225 175 167 162 161
292 284 288 325 289 134 270 209 229 305 7 63 94 52 53 41 53 33 51 69 70 4 337 20 356 114 315 356 5 288 46 25 41 10 31 34 6 339 348 350 323 315 327 124 336 305 328 151 167 176 177 206 239 252 245 241 223 220 225 223 223 214 216 220 220 224 232 234 230 237 241 243 242 243 248 252 252 250 247 246 239 236 245 252 258 262 264 262 259 255 249 243 233 178 167 169 166
283 258 219 288 311 232 306 249 290 28 39 339 80 64 53 44 50 13 67 88 67 55 16 7 324 333 93 195 290 18 347 350 35 42 17 53 5 360 345 334 322 329 327 315 155 164 53 131 160 173 182 184 223 257 254 269 253 237 238 235 225 224 224 226 228 212 223 235 241 243 246 244 245 248 247 256 262 258 250 244 244 247 253 255 258 262 264 264 262 258 254 247 239 176 170 176 170
233 262 193 167 268 9 299 302 280 77 66 351 32 62 51 46 30 343 18 104 117 109 97 46 12 324 10 7 73 62 30 45 27 40 18 4 357 351 346 332 333 332 340 334 49 59 69 79 128 156 181 181 191 243 252 242 261 265 247 232 233 229 224 228 234 235 233 243 248 247 249 249 243 243 248 253 257 259 253 249 247 243 246 253 259 266 269 267 265 262 259 252 245 171 173 179 174
318 335 140 246 270 227 258 269 43 96 360 351 37 53 43 47 23 350 5 95 195 91 355 60 348 321 229 328 60 56 58 55 46 11 36 330 352 350 340 344 350 355 355 348 358 71 77 75 73 73 64 67 325 253 296 266 247 250 247 242 242 236 227 229 233 237 239 236 254 261 247 246 249 249 246 240 243 249 254 257 261 263 265 269 270 271 273 276 274 269 264 259 252 176 175 180 175
219 46 264 30 302 140 257 216 66 25 55 30 65 59 36 46 6 7 358 11 51 20 131 111 32 339 64 325 84 31 57 69 63 21 9 1 345 354 355 360 356 3 356 347 358 65 101 94 90 69 43 350 333 312 281 273 259 246 236 241 246 247 246 236 242 239 239 226 237 250 251 247 247 252 249 238 240 247 256 260 260 261 265 273 278 277 278 282 284 280 274 264 258 176 176 182 175
221 158 235 25 275 245 267 120 109 46 116 109 105 113 90 41 12 347 24 329 48 326 70 57 16 10 352 331 84 56 47 44 41 30 19 2 5 2 1 4 5 359 358 3 349 359 46 76 96 85 53 303 285 281 272 270 266 255 245 238 236 243 249 247 243 241 238 216 221 237 250 255 258 257 269 270 249 256 262 260 263 260 263 270 273 275 276 282 284 283 276 272 260 176 177 178 173
254 143 276 321 306 288 237 64 92 12 93 66 83 74 41 53 4 323 352 352 53 4 55 358 125 358 340 302 83 30 31 34 24 25 15 7 6 7 4 2 8 3 360 357 354 348 360 73 93 100 320 282 287 282 278 272 273 276 264 247 243 239 240 249 252 252 249 247 239 244 254 253 260 309 286 276 269 252 254 262 264 266 265 270 270 270 274 279 284 283 277 276 274 179 179 174 170
297 171 194 320 272 237 9 65 95 125 107 132 92 74 34 21 62 328 24 344 353 89 53 5 70 354 314 71 82 164 57 37 30 13 353 353 15 10 1 2 4 6 5 353 354 347 355 358 74 216 249 272 293 283 294 292 286 290 285 268 262 257 246 242 250 258 261 262 259 262 264 264 251 218 245 255 251 249 254 258 259 264 264 266 269 268 271 276 280 277 275 266 270 192 182 177 173
305 337 302 275 277 339 18 34 63 99 99 118 90 66 344 348 355 20 7 347 9 59 38 2 354 313 293 92 96 44 36 34 31 6 2 357 3 19 359 355 2 355 8 352 352 359 354 344 338 330 254 276 265 287 290 301 301 300 296 289 274 266 265 258 252 253 252 250 250 249 253 250 241 216 237 245 249 236 246 257 259 272 274 274 277 288 294 288 286 288 272 254 258 219 191 179 178
1 323 347 330 274 10 313 286 74 164 134 84 86 83 176 27 51 20 344 337 43 46 49 4 281 274 39 344 78 46 42 24 26 13 3 10 14 21 12 7 11 12 5 357 12 8 4 1 357 351 352 274 277 269 274 276 288 296 294 293 288 277 268 264 255 240 241 245 250 247 238 241 241 230 229 238 234 220 240 254 247 238 258 270 271 277 284 290 288 280 256 255 254 203 208 178 178
354 330 313 278 302 292 63 308 45 15 64 89 48 111 331 85 63 29 10 5 57 39 89 346 346 302 22 345 34 17 25 22 18 20 11 10 20 29 21 10 25 18 14 19 20 15 8 3 360 0 350 345 327 283 259 261 262 261 273 281 285 281 279 276 268 259 239 232 235 237 226 233 234 220 227 236 230 217 224 235 239 245 243 253 268 284 290 287 283 249 219 240 253 221 211 184 178
288 349 299 270 296 316 19 56 32 23 78 89 267 41 334 83 78 59 62 331 68 34 115 18 327 4 11 43 2 21 20 15 21 20 18 11 21 27 25 17 24 25 14 22 20 17 11 7 1 356 351 349 342 332 332 310 261 249 252 254 263 267 265 268 270 262 259 240 227 228 227 228 229 223 227 236 232 219 221 222 226 235 243 239 254 282 289 289 268 240 226 235 216 220 216 197 181
320 352 308 302 275 57 343 13 44 333 62 100 171 91 60 111 90 76 41 324 303 317 33 90 47 68 57 57 36 31 30 21 27 25 21 16 16 26 21 19 20 21 17 21 20 18 11 13 6 1 356 353 345 340 327 320 326 311 263 259 252 249 253 258 261 265 261 256 242 228 223 223 225 223 226 234 237 233 225 217 222 230 233 223 239 268 286 288 291 235 207 209 210 207 199 189 173
343 316 302 228 273 77 335 357 36 10 299 117 38 45 49 24 51 117 122 211 223 99 79 52 64 63 58 47 37 38 36 31 31 32 27 22 14 22 16 16 18 18 13 16 19 19 9 13 4 5 355 349 344 337 329 323 318 315 314 276 263 260 252 248 249 254 260 258 249 243 229 220 218 226 230 221 233 237 236 226 228 231 233 188 163 211 252 291 189 183 206 213 204 204 195 179 166
272 233 237 291 346 55 312 351 12 15 336 10 2 40 38 38 20 7 314 227 105 71 42 45 76 65 54 44 39 39 41 35 33 35 32 27 17 22 20 13 12 14 5 6 4 25 10 7 0 359 350 353 344 338 328 329 321 318 305 304 280 253 253 251 253 247 246 252 249 242 237 225 216 216 211 223 227 230 238 235 215 218 206 180 172 200 215 175 186 196 211 215 217 187 205 198 173
259 291 297 218 4 175 320 2 341 2 360 349 8 8 10 62 20 356 356 72 57 50 39 39 60 61 57 41 35 38 37 38 36 38 33 29 22 17 20 11 14 11 5 4 356 15 8 0 359 359 349 351 350 339 332 323 321 318 317 315 313 289 254 247 245 246 244 249 251 238 232 239 221 219 213 217 227 228 226 236 222 207 192 174 170 171 197 130 169 193 212 211 164 138 233 264 164
273 57 294 40 46 23 0 349 343 350 9 358 358 353 319 51 46 288 79 83 61 48 31 41 46 48 52 51 39 39 38 38 35 38 36 30 25 16 15 14 10 13 3 1 355 8 6 2 355 357 352 348 353 345 337 327 323 324 316 314 312 310 307 278 246 246 242 241 249 242 229 226 231 234 228 226 225 222 220 229 231 198 181 166 161 159 142 122 168 184 202 175 141 157 185 207 168
43 140 262 125 359 294 151 328 324 3 35 345 321 292 359 5 60 300 297 119 61 50 48 57 52 49 51 49 43 35 41 39 34 35 39 32 28 21 14 14 5 3 358 357 354 11 5 360 351 354 353 347 353 346 340 334 325 309 299 300 298 302 302 304 298 267 248 246 247 245 236 226 221 230 232 233 228 223 197 191 174 221 177 157 165 152 144 130 113 186 209 161 161 170 141 179 164
347 260 103 111 10 305 104 322 340 36 19 291 298 352 32 296 104 46 49 84 71 65 70 60 65 63 59 53 46 42 36 37 34 29 34 31 28 25 16 14 4 1 358 0 356 11 359 1 348 350 350 344 351 345 336 325 331 330 324 311 305 300 297 301 304 304 291 256 247 248 244 236 233 224 224 234 236 212 184 185 178 175 176 165 171 155 161 137 139 98 235 165 179 175 164 180 163
266 219 97 81 84 296 111 298 334 67 7 303 333 35 326 81 86 72 69 78 85 82 73 74 66 67 72 67 55 46 40 36 32 30 25 28 21 22 16 11 4 360 358 359 353 2 354 357 348 351 350 344 348 341 329 335 331 324 320 320 316 307 297 292 294 294 294 296 278 257 240 239 239 236 216 220 237 232 219 189 183 169 165 164 165 160 158 144 139 138 149 158 152 142 168 171 164
201 234 140 116 349 282 308 281 326 62 165 272 327 278 259 154 103 90 87 88 88 75 77 76 72 63 61 67 58 56 47 37 33 32 28 27 21 19 12 10 1 355 355 354 355 359 354 350 344 349 348 345 348 339 336 336 327 326 319 314 313 312 311 306 297 295 299 295 296 285 258 247 239 239 225 213 215 218 220 200 182 178 174 171 172 167 154 152 151 151 141 139 132 141 133 152 154
204 242 107 153 234 217 272 276 283 192 212 337 322 269 210 158 121 106 102 95 88 86 85 81 82 76 67 61 64 55 50 40 32 28 26 22 17 11 14 10 3 358 359 351 346 355 345 341 342 344 343 341 344 336 335 331 331 331 323 318 314 311 307 303 299 297 296 295 292 296 290 269 256 242 232 221 211 212 214 195 184 189 174 172 170 170 161 165 167 158 151 145 137 130 132 136 150
205 59 180 249 243 187 233 263 237 169 129 8 324 7 103 109 102 95 108 102 102 107 99 100 92 88 76 65 55 58 53 48 35 26 23 9 12 13 11 12 2 358 351 336 342 343 338 335 339 344 337 338 340 337 335 329 333 326 325 321 312 303 300 302 303 298 292 293 293 289 288 283 277 260 241 232 212 214 205 194 187 181 170 172 171 172 168 169 177 175 162 155 140 138 129 130 142
173 280 272 272 275 255 193 257 219 123 359 13 340 316 157 153 141 119 116 117 118 111 103 93 91 85 81 72 58 52 58 50 39 24 19 19 17 14 1 6 5 351 344 341 343 342 338 336 336 341 335 338 337 339 329 331 329 325 323 321 316 309 298 296 297 296 293 288 285 286 285 285 274 270 251 223 212 211 199 195 190 178 173 176 173 176 172 170 177 181 178 177 169 166 163 153 149
258 288 312 263 248 207 171 232 192 132 187 337 326 300 215 183 227 135 144 134 126 113 105 99 94 86 84 79 71 57 52 52 48 30 22 18 17 5 354 5 358 352 348 344 344 336 346 342 342 346 344 346 346 344 338 337 333 328 322 319 317 314 313 305 296 293 294 291 286 282 283 280 275 262 268 257 224 218 209 199 193 179 178 175 176 174 172 166 176 184 186 185 181 174 172 169 163
297 310 300 236 178 182 181 207 212 175 223 355 318 290 231 171 150 131 136 134 123 116 113 108 96 89 82 85 86 70 48 37 39 40 24 17 14 6 353 357 352 346 341 335 341 339 345 340 339 340 338 339 341 337 333 330 327 324 322 320 319 324 322 317 311 305 297 295 295 289 279 276 273 266 251 251 252 228 212 206 197 189 177 176 175 170 170 157 168 178 185 175 174 173 169 162 160
273 261 238 113 176 202 187 211 186 186 201 39 350 355 225 190 129 133 135 128 124 118 119 108 93 81 74 67 66 59 45 35 27 39 26 12 6 7 349 347 349 344 340 334 338 343 342 338 339 338 338 335 334 328 326 324 323 318 316 316 321 320 316 320 322 319 315 308 302 298 289 278 269 266 259 254 250 257 245 222 208 195 181 175 173 167 165 158 165 172 176 175 173 171 173 165 163
256 214 193 233 158 228 179 201 161 215 140 160 151 210 289 125 113 133 133 128 122 109 99 89 84 82 83 81 49 35 41 46 28 30 24 7 3 4 342 338 344 343 341 339 338 338 338 334 338 335 335 334 330 326 322 317 315 315 313 317 318 314 321 323 320 317 315 315 313 307 305 298 283 271 264 247 236 245 247 267 262 214 184 175 174 170 163 163 165 170 169 170 163 160 168 168 164
240 50 288 254 213 56 170 162 161 192 166 167 200 247 210 120 135 137 128 121 121 117 117 107 105 96 90 67 43 41 24 42 34 26 25 1 358 349 337 338 342 339 341 331 330 333 337 333 334 334 335 333 328 327 326 321 317 313 309 311 313 316 320 319 318 316 317 317 315 313 308 303 298 290 275 269 253 242 226 234 241 259 277 204 170 168 161 159 163 165 176 170 162 163 162 166 168
274 181 306 328 10 301 237 229 171 290 309 233 172 242 312 130 143 131 137 127 131 124 125 121 111 100 89 46 70 32 32 34 25 18 13 1 347 346 344 337 346 336 329 332 335 341 335 327 329 329 327 324 317 321 320 317 310 310 308 308 309 315 316 316 313 315 315 314 313 307 304 301 300 298 292 281 276 264 239 230 244 239 216 208 203 179 168 164 162 169 175 180 172 165 169 164 168
236 91 318 304 286 314 272 165 227 173 190 244 288 257 247 143 165 149 143 142 136 128 128 127 121 111 94 95 65 26 42 27 15 6 6 353 344 339 342 337 326 326 325 323 326 325 316 314 317 315 318 315 315 316 314 309 309 307 304 304 305 307 311 309 309 310 309 310 309 303 303 309 307 302 297 289 278 269 260 247 244 237 235 222 198 182 177 170 170 168 173 181 179 166 170 168 167
317 325 331 311 329 312 291 295 166 234 162 251 303 281 275 129 164 157 150 155 135 130 128 124 115 106 107 101 65 50 41 41 4 351 355 340 343 337 332 332 335 331 329 324 325 317 314 320 320 316 312 307 306 305 302 301 298 298 298 300 298 301 301 303 302 302 302 302 305 305 308 308 305 306 302 300 295 285 267 250 244 245 222 216 208 189 181 176 175 172 172 176 185 177 172 173 170
303 311 298 303 295 288 284 286 121 256 284 300 275 264 246 192 162 160 155 149 129 128 123 118 131 119 94 76 73 39 47 42 319 350 358 0 353 339 337 336 332 334 330 335 332 328 328 327 324 319 314 313 312 308 307 302 298 299 301 300 299 298 295 294 297 293 290 295 300 305 305 304 313 316 312 305 300 294 289 273 254 237 223 208 202 206 180 177 179 174 175 170 173 174 173 168 162
299 287 254 250 254 266 268 282 103 109 4 263 301 302 286 274 169 173 158 132 127 140 141 142 136 115 96 101 73 49 62 297 335 33 24 353 344 325 336 344 345 341 339 334 326 327 332 332 328 325 325 321 319 316 312 310 307 302 296 296 296 295 297 296 289 288 288 287 292 296 297 311 314 314 313 313 308 307 303 294 278 259 237 220 206 211 195 174 177 177 172 172 167 167 173 165 165
251 246 254 261 246 267 312 299 145 103 136 269 272 266 261 258 163 163 145 147 159 151 145 137 128 126 124 105 72 103 359 356 7 26 11 343 340 345 357 354 346 344 341 336 331 331 334 329 328 326 324 322 320 318 314 308 305 303 302 300 300 301 298 293 291 287 286 289 287 288 297 304 307 309 310 308 304 302 311 310 295 268 244 225 213 209 195 180 174 178 171 170 177 169 174 170 166
252 246 250 264 268 280 302 87 79 311 357 266 265 268 271 279 152 161 157 161 144 131 122 123 119 126 109 90 110 51 21 9 358 18 353 341 352 358 349 346 344 340 333 329 327 330 328 327 322 320 317 317 316 315 312 308 304 300 300 298 297 294 288 284 281 284 283 280 283 284 286 298 307 309 307 300 300 302 317 316 306 288 258 232 224 216 197 182 176 178 175 169 173 181 170 174 168
241 241 255 244 297 59 311 275 359 331 318 286 272 279 274 279 140 145 162 124 116 117 122 114 119 110 84 60 110 48 11 13 350 2 347 341 356 349 352 351 344 339 334 328 329 324 320 316 316 317 318 316 312 310 307 304 302 299 294 291 290 286 290 290 284 280 277 275 274 278 287 294 306 307 310 309 303 303 308 302 303 295 276 252 227 218 212 191 177 179 181 176 168 169 175 184 184
276 288 272 294 52 310 224 284 312 295 278 255 292 276 256 165 164 150 128 121 134 143 139 145 133 121 166 159 86 75 38 20 343 337 329 341 347 355 2 346 340 336 332 330 326 322 317 314 319 327 324 317 314 313 310 307 304 301 298 291 286 288 284 285 288 285 281 278 274 272 280 299 303 304 308 310 308 298 291 289 292 288 284 273 253 232 217 219 192 178 180 175 177 171 176 174 185
272 106 88 142 215 312 309 298 306 319 310 189 338 320 240 173 174 159 140 155 167 161 162 152 141 139 140 88 62 39 30 17 301 308 325 318 331 3 355 346 338 330 327 319 314 313 317 320 326 326 319 317 317 318 312 307 304 303 305 304 302 296 291 287 285 288 288 283 278 278 276 271 288 300 305 308 307 301 289 281 283 290 283 278 274 252 238 210 203 191 184 179 181 178 167 168 178
346 232 256 50 306 264 269 279 352 286 243 247 45 243 295 130 188 171 172 174 169 173 151 145 140 153 115 83 66 48 3 324 306 297 309 338 359 358 345 340 337 330 322 315 316 321 321 320 321 318 314 310 312 310 308 303 299 299 298 297 295 293 292 287 282 281 282 281 276 278 282 283 276 282 296 301 304 305 299 287 272 278 284 282 275 273 256 234 218 198 183 183 180 174 169 170 178
263 168 221 210 259 256 258 261 222 252 264 266 251 202 262 276 226 167 172 171 170 172 162 147 156 128 81 90 65 52 307 289 301 286 312 358 6 352 339 333 333 326 320 323 326 325 321 323 323 318 311 306 305 304 302 301 296 297 301 300 295 291 288 286 287 284 282 282 280 275 273 274 278 281 289 296 300 302 297 290 273 265 277 284 278 262 256 248 230 219 202 184 180 174 175 178 178
207 222 224 254 244 253 252 243 245 246 281 279 195 231 275 255 272 143 159 166 180 186 161 159 152 105 110 84 68 354 321 298 313 326 349 7 359 344 336 331 327 322 325 329 328 324 324 326 322 315 311 310 310 309 303 307 325 326 321 315 308 302 295 289 288 284 283 284 283 279 273 269 271 273 274 285 292 296 295 289 285 272 268 276 279 274 258 249 233 211 201 195 182 183 181 179 173
100 331 278 249 246 250 240 235 251 260 253 271 245 208 243 260 149 159 184 184 186 183 155 142 119 114 98 85 1 311 294 303 320 347 5 2 349 336 327 324 329 334 337 335 328 327 326 326 324 321 313 313 311 313 327 326 322 322 319 313 307 304 305 303 297 287 282 284 283 281 275 270 259 256 260 266 279 285 292 298 304 295 283 275 281 278 264 246 238 222 203 195 192 184 180 178 179
0 332 277 277 255 241 227 223 230 299 248 261 274 219 200 276 171 189 168 216 172 151 139 133 123 110 89 102 353 313 327 341 338 5 4 348 336 326 324 331 331 333 335 328 323 322 321 321 326 320 314 316 321 320 316 310 310 312 313 308 305 305 308 304 299 291 284 283 282 281 277 269 241 239 246 256 261 276 282 289 331 334 310 291 280 285 274 247 235 226 214 197 193 187 185 182 185
83 297 313 323 292 252 237 241 113 183 262 178 359 36 309 205 300 89 135 97 106 139 140 122 126 91 112 42 357 5 358 346 6 5 348 339 331 327 329 330 334 336 335 332 329 325 319 323 323 319 321 322 318 318 322 314 308 309 302 299 297 303 307 304 298 299 296 285 283 282 280 274 257 228 219 241 252 271 277 284 309 319 308 299 295 296 289 261 237 226 213 207 197 191 190 190 184
161 269 310 333 287 4 300 56 314 206 233 204 90 49 338 256 231 169 168 127 119 119 115 123 112 89 57 16 20 1 352 8 7 352 342 337 333 332 335 336 336 337 332 326 324 326 325 319 320 324 322 321 317 323 321 317 319 315 308 303 307 310 305 303 297 293 300 297 288 281 276 269 260 228 214 225 236 263 286 299 327 324 313 303 298 293 285 297 283 236 220 201 196 194 192 192 194
212 221 197 118 325 315 268 231 240 254 314 183 145 5 261 249 258 214 149 134 119 119 117 103 90 76 48 21 25 9 3 16 355 347 341 332 329 331 332 331 333 330 327 326 328 331 328 323 322 321 319 321 318 316 316 315 313 314 320 324 316 309 304 300 296 292 294 303 306 300 287 277 263 239 224 219 230 241 266 267 258 269 277 285 285 279 276 276 282 275 226 209 203 194 191 192 195
216 129 135 181 173 177 277 198 224 236 234 251 336 17 227 10 272 85 121 126 124 118 112 118 117 100 114 140 62 17 11 5 354 339 330 326 326 328 326 326 325 322 320 327 330 330 327 324 325 324 323 326 323 315 315 313 321 323 321 319 316 305 296 297 302 299 294 296 302 303 299 289 269 249 223 222 216 226 253 258 255 246 261 274 276 275 279 276 281 279 260 212 202 200 194 192 195
193 199 73 63 237 172 244 174 349 311 311 295 147 202 178 253 138 122 130 132 127 134 118 109 91 76 77 39 28 10 6 347 343 331 325 321 321 323 326 328 326 322 325 325 330 329 325 329 327 320 317 318 320 324 323 322 319 319 318 317 312 308 317 315 310 312 312 309 303 300 298 290 285 266 231 215 227 224 246 259 261 261 268 275 281 287 284 277 273 278 271 243 209 195 198 193 191
336 68 205 211 26 140 324 327 179 51 3 260 154 292 266 78 99 138 150 156 147 130 106 81 68 42 62 48 357 4 343 346 326 322 317 320 323 324 322 321 316 319 323 329 331 330 327 327 323 317 312 312 318 320 315 314 312 313 311 311 309 311 312 311 311 308 304 302 303 306 311 306 284 258 235 219 231 228 239 253 260 265 274 281 289 290 286 277 272 272 279 263 226 201 196 194 187
106 220 216 228 154 120 143 251 8 310 255 266 153 224 263 162 265 173 168 178 140 104 100 89 91 63 75 200 326 19 341 338 327 322 321 314 314 323 327 320 320 323 322 325 328 324 320 315 310 308 307 313 320 321 316 314 313 312 311 313 311 308 305 304 305 305 306 302 301 301 305 308 309 289 248 231 223 234 239 247 250 251 259 266 274 282 284 278 273 270 269 272 248 212 199 199 190
150 192 332 100 211 310 260 88 279 258 257 278 240 225 228 202 231 159 186 182 157 109 97 99 50 71 358 13 0 354 334 322 326 315 313 315 319 321 316 313 314 314 313 316 313 311 311 307 306 312 315 313 313 316 315 315 320 319 316 315 312 308 302 301 303 306 306 303 300 299 300 300 306 308 286 252 236 235 236 242 237 245 239 253 254 261 276 281 276 270 269 270 264 230 204 195 194
80 1 335 249 95 209 160 191 206 188 266 303 280 267 249 200 210 173 164 140 129 52 48 44 29 55 30 8 351 336 340 331 331 327 318 317 320 317 316 316 317 317 315 313 309 316 317 310 318 324 318 317 316 316 317 315 313 313 313 311 309 308 304 300 302 305 304 305 304 300 299 301 306 313 317 294 260 240 228 231 231 231 235 243 247 238 259 284 283 273 270 273 268 248 207 194 194
159 149 225 195 193 214 124 304 170 208 252 242 288 288 277 247 64 117 126 125 141 140 152 138 152 114 57 20 352 344 333 331 322 317 317 318 317 316 317 320 315 312 310 310 316 320 312 312 317 318 324 320 317 318 318 313 312 309 310 310 308 309 306 307 306 302 300 303 304 303 303 304 305 306 312 314 294 268 234 225 226 224 229 236 246 251 252 283 289 281 270 265 274 264 228 198 185
188 179 207 191 168 184 198 254 115 212 222 233 229 261 253 248 165 142 113 131 125 117 147 188 118 82 54 17 339 345 335 329 326 322 322 318 313 316 324 321 317 317 318 320 320 317 316 313 316 321 319 315 317 319 321 319 315 308 308 307 307 305 303 304 306 306 301 300 300 302 308 309 306 303 307 309 308 290 273 236 230 224 224 229 237 254 246 269 286 285 274 262 266 265 242 205 192